Location: Escondida
(34.1015°N, 106.8964°W)
Time: 06:54:46
(UTC+00:00)

Cosmos 1743 - Visible Passes

Search period start: 11 March 2026 00:00
Search period end: 21 March 2026 00:00
Orbit: 391 x 393 km, 82.5° (Epoch: 10 March)

Date Brightness Start Highest point End Pass type
(mag) Time Alt. Az. Time Alt. Az. Time Alt. Az.
11 Mar 2.8 12:40:17 10° NNW 12:43:06 31° W 12:45:53 10° SSW visible
12 Mar 3.7 11:46:36 10° N 11:49:31 37° E 11:52:25 10° SSE visible
13 Mar 2.9 12:26:02 10° NNW 12:28:48 29° W 12:31:31 10° SSW visible
14 Mar 3.5 11:32:08 10° N 11:35:05 40° E 11:38:01 10° SSE visible
15 Mar 3.9 12:11:30 10° NNW 12:18:42 - SSW 12:12:35 18° NW visible
